Location: Unspecified
(0.0000°N, 0.0000°E)
Time: 05:15:20
(UTC+02:00)

ARIANE 5 R/B - Visible Passes

Search period start: 20 April 2014 00:00
Search period end: 30 April 2014 00:00
Orbit: 587 x 35635 km, 6.9° (Epoch: 19 April)

Date Brightness Start Highest point End Pass type
(mag) Time Alt. Az. Time Alt. Az. Time Alt. Az.
21 Apr 7.5 06:45:11 16° W 07:19:29 88° N 16:45:31 10° E visible
22 Apr 6.7 03:56:38 68° NE 03:56:38 68° NE 13:41:38 10° E visible
23 Apr 11.4 07:13:31 10° E 08:53:55 16° E 09:56:27 10° E visible
23 Apr 3.8 21:46:34 10° W 21:55:06 59° N 21:55:11 59° N visible
25 Apr 7.2 06:06:44 29° WNW 06:28:30 87° N 16:04:39 10° E visible
26 Apr 7.1 03:18:11 51° ENE 03:18:11 51° ENE 12:58:18 10° E visible
27 Apr 4.2 21:01:51 10° W 21:14:28 67° N 21:16:40 28° ENE visible
29 Apr 7.0 05:28:17 44° WNW 05:41:28 85° N 15:23:32 10° E visible
